Regional Weather Roundup
Issued by NWS

Home | Current Version | Previous Version | Text Only | Print | Product List | Glossary On
Versions: 1 2 3 4 5 6 7 8 9 10 11 12 13 14 15 16 17 18 19 20 21 22 23 24 25 26 27 28 29 30 31 32 33 34 35 36 37 38 39 40 41 42 43 44 45 46 47 48 49 50
000
ASUS43 KTOP 181659
RWRKS

WEATHER ROUNDUP FOR KANSAS
NATIONAL WEATHER SERVICE GOODLAND KS
1200 PM CDT WED OCT 18 2017

NOTE:  "FAIR" INDICATES FEW OR NO CLOUDS BELOW 12,000 FEET WITH NO
SIGNIFICANT WEATHER AND/OR OBSTRUCTIONS TO VISIBILITY.

KSZ001>006-013>018-027>032-041>047-181800-
NORTHWEST KANSAS

CITY           SKY/WX    TMP DP  RH WIND       PRES   REMARKS
GOODLAND       CLOUDY    78  21  12 MISG      30.07R
HAYS           MOSUNNY   65  47  52 W6        30.00R
HILL CITY      SUNNY     70  45  40 CALM      29.99R
RUSSELL        CLOUDY    65  48  54 SW8       29.98R
$$

KSZ061>065-074>080-084>089-181800-
SOUTHWEST KANSAS

CITY           SKY/WX    TMP DP  RH WIND       PRES   REMARKS
DODGE CITY     SUNNY     74  43  32 VRB6      30.01F
ELKHART          N/A     73  40  30 N6          N/A
GARDEN CITY    SUNNY     72  41  32 VRB5      30.03F
GREAT BEND     SUNNY     66  48  52 SW6       30.00S
LIBERAL        SUNNY     71  41  33 NE5       30.05F
$$

KSZ066>073-081>083-090>101-181800-
SOUTHEAST KANSAS

CITY           SKY/WX    TMP DP  RH WIND       PRES   REMARKS
CHANUTE        SUNNY     69  47  45 S20       30.08S
COFFEYVILLE    SUNNY     68  47  46 S16G25    30.09F
HUTCHINSON     SUNNY     68  48  48 S14       30.00S
MEDICINE LODGE   N/A     68  46  45 MISG      30.01F
NEWTON         SUNNY     66  47  50 SW16      30.02R
PARSONS        SUNNY     69  45  41 S16G29    30.10F
WICHITA INTL   MOSUNNY   67  48  50 S16       30.02F
WICHITA JABRA  SUNNY     67  47  48 S14       30.02F
WICHITA MCCONL SUNNY     67  46  45 SW15      30.03S
WINFIELD       SUNNY     69  48  47 S15G23    30.05F
$$

KSZ007>012-019>026-033>040-048>060-102>105-181800-
NORTHEAST KANSAS

CITY           SKY/WX    TMP DP  RH WIND       PRES   REMARKS
CONCORDIA      SUNNY     63  49  60 SW9       29.98R
EMPORIA        SUNNY     68  46  45 S17G24    30.03S
LAWRENCE       SUNNY     68  48  48 S13       30.02F
MANHATTAN      SUNNY     69  48  47 SW9G23    29.98S
OLATHE IND     SUNNY     67  46  47 S17G28    30.05F
OLATHE EXE     SUNNY     65  44  46 S16G26    30.05F
SALINA         SUNNY     68  50  52 S14       29.99F
TOPEKA BILLARD SUNNY     68  47  46 SW16      30.00F
TOPEKA FORBES  SUNNY     69  47  45 SW20G26   30.01F
$$




USA.gov is the U.S. government's official web portal to all federal, state and local government web resources and services.